COSMOS 1275 DEB, 42144

Orbit data source: Space-Track

COSMOS 1275 DEB, 42144 is space debris in LEO originally from a launch on Thu, 04 Jun 1981 UTC launched from the Plesetsk Missile And Space Complex (PKMTR). Debris objects in space refer to the collection of defunct objects orbiting the Earth. Examples of debris include non-operational satellites, rocket bodies, and fragments generated from explosions, collisions, or faulty payload assembly.

Loading next visibility...
Identifier
42144, 1981-053RG
Orbit
LEO
Country
Flag of CISCIS
Related business
Manufacturer
Unknown
Mission
Spacecraft
Bus & Motor
Unknown
Mass
Unknown
Launch date (UTC)
1981-06-04 (44 years ago)
Launch vehicle
Unknown
Launch site
Plesetsk Missile And Space Complex (PKMTR)
Object type
Payload
Rocket body
Debris
Shape & HBR
Unknown shape, 0.1 m
Radar Cross Section
Small (<0.1 m²)

Expand to show TLE details & history
Last TLE update: 2 days ago

TLE from 2 days ago
0 COSMOS 1275 DEB
1 42144U 81053RG  25285.57666006  .00001123  00000-0  90786-3 0  9990
2 42144  82.8062 135.7694 0058477  60.3594 330.1770 13.88630214601224
Epoch: 2025-10-12T13:50Z
TLE epoch observation values (Epoch: 2025-10-12T13:50:23.429Z)
Latitude
29.98948°
Longitude
-89.06477°
Altitude
900.157 km
Speed
7.423 km/s
True Right ascension
09h 19m 41s
True Declination
29° 50' 37"
Sunlit
Object was in daylight at epoch
Visualization orbit readout
Latitude
Unknown
Longitude
Unknown
Altitude
Unknown
Speed
Unknown
Apparent Right ascension
Unknown
Apparent Declination
Unknown
Sunlit
N/A
Visualization observer readout
Local Sidereal Time
23:45:38
Azimuth
Unknown
Elevation
Unknown
Doppler factor
Unknown
Orbital elements
Apogee altitude
973.309 km
Perigee altitude
887.831 km
Semi-major axis
7,308.707 km
Eccentricity
0.00585
Inclination
82.8062°
RAAN
135.7694°
Arg. of periapsis
60.3594°
True anomaly
329.84162°
Mean anomaly
330.177°
Eccentric anomaly
330.00952°
Mean motion
3.47362 °/min
Orbital period
103.64 mins
BSTAR
0.00090786
Loading maneuver chart data...
Computing Atmospheric mass density...
Loading historical data...
Loading historical data...
Loading historical data...
Loading historical data...
Loading historical data...
Loading historical data...
Loading historical data...

Documentation

Showing up to 5 results
|